Fort Meade, MD

3:26 AM EDT on April 27, 2017 (GMT -0400)
Tipton

Weather History for KFME - August, 2013

Change the Weather History Date:

Tuesday, August 13, 2013

  Actual Average (KBWI) Record (KBWI)
Temperature  
Mean Temperature 76 °F -  
Max Temperature 82 °F 84 °F 99 °F (2002)
Min Temperature 69 °F 65 °F 54 °F (1950)
Cooling Degree Days 10    
Growing Degree Days 26 (Base 50)    
Moisture  
Dew Point 69 °F    
Average Humidity 85    
Maximum Humidity 94    
Minimum Humidity 61    
Precipitation  
Precipitation 0.00 in - - ()
Sea Level Pressure  
Sea Level Pressure 29.82 in    
Wind  
Wind Speed 3 mph (WSW)    
Max Wind Speed 14 mph    
Max Gust Speed 18 mph    
Visibility 6 miles    
Events      
Averages and records for this station are not official NWS values.
T = Trace of Precipitation, MM = Missing Value Source: NWS Daily Summary

Daily Weather History Graph

Daily Weather History Graph

Search for Another Location

Airport or City:

Trip Planner

Search our weather history database for the weather conditions in past years. The results will help you decide how hot, cold, wet, or windy it might be!

Date:

Astronomy

Aug. 13, 2013 Rise Set
Actual Time 6:18 AM EDT 8:04 PM EDT
Civil Twilight 5:49 AM EDT 8:33 PM EDT
Nautical Twilight 5:15 AM EDT 9:07 PM EDT
Astronomical Twilight 4:37 AM EDT 9:44 PM EDT
Moon 1:07 PM EDT (8/13) 11:41 PM EDT (8/13)
Length of Visible Light 14h 43m
Length of Day
13h 45m
Waxing Crescent, 41% of the Moon is Illuminated
Aug 13
Waxing Crescent
Aug 14
First Quarter
Aug 20
Full
Aug 28
Last Quarter
Sep 5
New

Hourly Weather History & Observations

Time (EDT) Temp. Heat Index Dew Point Humidity Pressure Visibility Wind Dir Wind Speed Gust Speed Precip Events Conditions
12:03 AM 71.6 °F - 69.8 °F 94% 29.94 in 3.0 mi Calm Calm - N/A   Clear
1:06 AM 71.6 °F - 69.8 °F 94% 29.92 in 3.0 mi Calm Calm - N/A   Clear
1:24 AM 71.6 °F - 68.0 °F 88% 29.91 in 3.0 mi Calm Calm - N/A   Scattered Clouds
1:45 AM 71.6 °F - 69.8 °F 94% 29.91 in 3.0 mi Calm Calm - N/A   Scattered Clouds
2:03 AM 71.6 °F - 68.0 °F 88% 29.90 in 3.0 mi Calm Calm - N/A   Scattered Clouds
2:24 AM 71.6 °F - 68.0 °F 88% 29.89 in 3.0 mi Calm Calm - N/A   Scattered Clouds
2:45 AM 71.6 °F - 68.0 °F 88% 29.88 in 3.0 mi Calm Calm - N/A   Mostly Cloudy
3:06 AM 71.6 °F - 68.0 °F 88% 29.88 in 3.0 mi Calm Calm - N/A   Mostly Cloudy
3:24 AM 69.8 °F - 68.0 °F 94% 29.87 in 3.0 mi Calm Calm - N/A   Scattered Clouds
3:45 AM 71.6 °F - 68.0 °F 88% 29.86 in 3.0 mi Calm Calm - N/A   Scattered Clouds
4:06 AM 69.8 °F - 68.0 °F 94% 29.85 in 3.0 mi Calm Calm - N/A   Scattered Clouds
4:24 AM 69.8 °F - 68.0 °F 94% 29.85 in 3.0 mi Calm Calm - N/A   Scattered Clouds
4:45 AM 71.6 °F - 69.8 °F 94% 29.83 in 4.0 mi South 3.5 mph - N/A   Scattered Clouds
5:06 AM 71.6 °F - 69.8 °F 94% 29.82 in 4.0 mi South 3.5 mph - N/A   Mostly Cloudy
5:24 AM 71.6 °F - 69.8 °F 94% 29.82 in 4.0 mi SSW 4.6 mph - N/A   Mostly Cloudy
5:45 AM 71.6 °F - 69.8 °F 94% 29.81 in 4.0 mi South 4.6 mph - N/A   Scattered Clouds
6:06 AM 71.6 °F - 69.8 °F 94% 29.80 in 4.0 mi SSW 3.5 mph - N/A   Scattered Clouds
6:24 AM 71.6 °F - 69.8 °F 94% 29.80 in 4.0 mi SSW 4.6 mph - N/A   Mostly Cloudy
6:45 AM 73.4 °F - 69.8 °F 88% 29.80 in 4.0 mi SSW 6.9 mph - N/A   Mostly Cloudy
7:06 AM 73.4 °F - 69.8 °F 88% 29.80 in 2.5 mi SW 4.6 mph - N/A   Clear
7:24 AM 73.4 °F - 71.6 °F 94% 29.80 in 2.5 mi SSW 4.6 mph - N/A   Scattered Clouds
7:45 AM 73.4 °F - 71.6 °F 94% 29.81 in 3.0 mi WSW 4.6 mph - N/A   Scattered Clouds
8:06 AM 73.4 °F - 71.6 °F 94% 29.82 in 0.2 mi West 4.6 mph - N/A   Overcast
8:24 AM 73.4 °F - 71.6 °F 94% 29.82 in 0.2 mi West 13.8 mph 18.4 mph N/A   Overcast
8:45 AM 71.6 °F - 69.8 °F 94% 29.81 in 1.5 mi West 4.6 mph - N/A   Mostly Cloudy
9:06 AM 71.6 °F - 69.8 °F 94% 29.82 in 1.5 mi WSW 9.2 mph - N/A   Mostly Cloudy
9:27 AM 71.6 °F - 69.8 °F 94% 29.80 in 2.5 mi WSW 6.9 mph - N/A   Mostly Cloudy
9:45 AM 73.4 °F - 71.6 °F 94% 29.80 in 2.5 mi WSW 5.8 mph - N/A   Mostly Cloudy
10:06 AM 73.4 °F - 71.6 °F 94% 29.81 in 2.5 mi West 8.1 mph - N/A   Scattered Clouds
10:27 AM 73.4 °F - 71.6 °F 94% 29.82 in 7.0 mi WNW 9.2 mph - N/A   Scattered Clouds
10:45 AM 73.4 °F - 69.8 °F 88% 29.82 in 7.0 mi West 8.1 mph - N/A   Mostly Cloudy
11:03 AM 73.4 °F - 69.8 °F 88% 29.82 in 10.0 mi WNW 5.8 mph - N/A   Mostly Cloudy
11:27 AM 75.2 °F - 69.8 °F 83% 29.83 in 10.0 mi WNW 5.8 mph - N/A   Scattered Clouds
11:45 AM 75.2 °F - 68.0 °F 78% 29.83 in 10.0 mi West 6.9 mph - N/A   Clear
12:06 PM 75.2 °F - 68.0 °F 78% 29.83 in 10.0 mi West 9.2 mph - N/A   Scattered Clouds
12:27 PM 75.2 °F - 66.2 °F 73% 29.82 in 10.0 mi West 6.9 mph - N/A   Clear
12:45 PM 73.4 °F - 68.0 °F 83% 29.82 in 10.0 mi WNW 6.9 mph - N/A   Clear
1:06 PM 73.4 °F - 68.0 °F 83% 29.82 in 10.0 mi WNW 6.9 mph - N/A   Clear
1:27 PM 77.0 °F - 68.0 °F 74% 29.81 in 10.0 mi WNW 5.8 mph - N/A   Clear
1:45 PM 78.8 °F - 68.0 °F 69% 29.81 in 10.0 mi NW 6.9 mph - N/A   Clear
2:06 PM 77.0 °F - 66.2 °F 69% 29.80 in 10.0 mi West 5.8 mph - N/A   Clear
2:27 PM 80.6 °F 83.2 °F 68.0 °F 65% 29.80 in 10.0 mi West 9.2 mph - N/A   Clear
2:45 PM 80.6 °F 83.2 °F 68.0 °F 65% 29.80 in 10.0 mi NW 8.1 mph - N/A   Scattered Clouds
3:06 PM 80.6 °F 83.2 °F 68.0 °F 65% 29.80 in 10.0 mi NW 5.8 mph - N/A   Scattered Clouds
3:24 PM 82.4 °F 85.4 °F 68.0 °F 62% 29.79 in 10.0 mi NNW 5.8 mph - N/A   Mostly Cloudy
3:45 PM 80.6 °F 82.7 °F 66.2 °F 61% 29.79 in 10.0 mi NW 3.5 mph - N/A   Mostly Cloudy
4:06 PM 80.6 °F 83.2 °F 68.0 °F 65% 29.78 in 10.0 mi WNW 8.1 mph - N/A   Mostly Cloudy
4:27 PM 80.6 °F 83.2 °F 68.0 °F 65% 29.77 in 10.0 mi WSW 8.1 mph - N/A   Clear
4:45 PM 80.6 °F 82.7 °F 66.2 °F 61% 29.77 in 10.0 mi WSW 5.8 mph - N/A   Clear
5:06 PM 80.6 °F 83.2 °F 68.0 °F 65% 29.77 in 10.0 mi SSW 4.6 mph - N/A   Clear
5:27 PM 80.6 °F 82.7 °F 66.2 °F 61% 29.77 in 10.0 mi WSW 4.6 mph - N/A   Clear
5:45 PM 78.8 °F - 68.0 °F 69% 29.77 in 10.0 mi West 3.5 mph - N/A   Scattered Clouds
6:06 PM 78.8 °F - 69.8 °F 74% 29.77 in 10.0 mi Calm Calm - N/A   Scattered Clouds
6:27 PM 77.0 °F - 69.8 °F 78% 29.77 in 10.0 mi Calm Calm - N/A   Scattered Clouds
6:48 PM 77.0 °F - 69.8 °F 78% 29.77 in 10.0 mi Calm Calm - N/A   Clear
7:06 PM 77.0 °F - 71.6 °F 83% 29.76 in 10.0 mi Calm Calm - N/A   Clear
7:27 PM 75.2 °F - 71.6 °F 89% 29.77 in 7.0 mi Calm Calm - N/A   Clear
7:48 PM 75.2 °F - 71.6 °F 89% 29.78 in 7.0 mi Calm Calm - N/A   Scattered Clouds
8:06 PM 73.4 °F - 71.6 °F 94% 29.78 in 7.0 mi Calm Calm - N/A   Mostly Cloudy
8:27 PM 73.4 °F - 71.6 °F 94% 29.78 in 7.0 mi Calm Calm - N/A   Overcast
8:48 PM 73.4 °F - 69.8 °F 88% 29.80 in 1.2 mi SW 9.2 mph - N/A   Overcast
9:06 PM 71.6 °F - 68.0 °F 88% 29.82 in 2.0 mi SSW 6.9 mph - N/A   Overcast
9:27 PM 69.8 °F - 68.0 °F 94% 29.81 in 3.0 mi South 3.5 mph - N/A   Overcast
9:48 PM 69.8 °F - 68.0 °F 94% 29.81 in 1.8 mi West 3.5 mph - N/A   Overcast
10:06 PM 69.8 °F - 68.0 °F 94% 29.81 in 1.5 mi Calm Calm - N/A   Overcast
10:27 PM 69.8 °F - 68.0 °F 94% 29.82 in 1.5 mi Calm Calm - N/A   Overcast
10:48 PM 69.8 °F - 68.0 °F 94% 29.82 in 1.8 mi Calm Calm - N/A   Overcast
11:06 PM 69.8 °F - 68.0 °F 94% 29.82 in 2.5 mi SW 3.5 mph - N/A   Mostly Cloudy
11:27 PM 69.8 °F - 68.0 °F 94% 29.82 in 1.8 mi Calm Calm - N/A   Mostly Cloudy
11:48 PM 69.8 °F - 68.0 °F 94% 29.83 in 1.5 mi Calm Calm - N/A   Scattered Clouds